{"data":{"norad_id":47277,"epoch":"2026-09-19T11:48:17.516160Z","epoch_age_seconds":105349,"freshness":"FRESH","line1":"1 47277U 20100V   26262.49186940  .00000454  00000+0  12253-2 0  9996","line2":"2 47277  87.8973 331.9424 0001898  94.7197 265.4148 13.12442650277059","mean_motion":13.1244265,"eccentricity":0.0001898,"inclination_deg":87.8973,"raan_deg":331.9424,"arg_perigee_deg":94.7197,"mean_anomaly_deg":265.4148,"bstar":0.0012253,"rev_number":27705,"period_min":109.71907991561,"perigee_km":1212.2837054313,"apogee_km":1215.1655761101,"semimajor_km":7591.8616407707,"source":"CELESTRAK","updated_at":"2026-09-20T09:00:44.579872Z"}}